Погода в Ореле

Погода в Ореле : погода сейчас, прогноз погоды и архив. Всё, что Вы хотите узнать о погоде в Ореле!

Хотите узнать прогноз погоды в Ореле? Тогда Вам сюда: Погода в Ореле

Поиск расширенной информации на нашем сайте:

Другие новости

Новости СМИ2

Главная страница сайта

Новости сайта

03.07.2017

Напоминаем, что на нашем специализированном сайте Метеоцентр.Азия вы можете получить высокодетализированные автоматические прогнозы погоды по пунктам России, СНГ и мира в авиационном формате (включающие направление и скорость ветра, видимость, явления погоды, количество и форму облачности, нижнюю и верхнюю границу облачности).


Погода в Ореле - сегодня

Время (UTC), дата Ветер
(°,м/с) 
Видим.   Явления Облачность Т
(°С)
Тd
(°С)
f(%) Тe
(°С)
Pmin
(гПа)
dP
(гПа)
Po
(мм)
O2
(г/м3)
Тmin Tmax R s Состояние
почвы
12 12.10.18 310 (СЗ) 10 км    ясно 
+16.1 +1.5 37 +17  1035.7  -1.3  759  289           
15 12.10.18 тихо ()   10 км    ясно 
+10.1 +3.3 63 +10  1034.8  -1.4  758  294           
21 12.10.18 тихо ()   10 км    ясно 
+3.5 +2.5 93 +4  1034.7  -0.2  758  301           
00 13.10.18 тихо ()   10 км    ясно 
+2.5 +1.5 93 +3  1034.8  758  302           
09 13.10.18 290 (З) 10 км    3/0 верхняя 
[Ci fib]
+16.8 +4.2 43 +18  1032.1  -1  757  287           
12 13.10.18 290 (З) 10 км    8/0 верхняя 
[Ci fib]
+17.4 +2.7 37 +18  1031.1  -1  756  286           
15 13.10.18 290 (З) 10 км    4/0 средняя 
[Ac trans]
+11.2 +3.6 59 +12  1030.4  -1.1  755  292           
21 13.10.18 тихо ()   10 км    ясно 
+6 +2.4 78 +6  1030.4  755  297           
00 14.10.18 тихо ()   10 км    ясно 
+4.2 +2.2 87 +4  1030.4  0.1  755  299           
09 14.10.18 300 (СЗ) 10 км    9/0 верхняя 
[Ci fib]
+14.8 +8.6 66 +15  1029.1  0.1  754  287           
12 14.10.18 320 (СЗ) 10 км    8/0 верхняя 
[Ci fib]
+19.7 +9 50 +21  1027.8  -0.9  754  282           
15 14.10.18 тихо ()   10 км    8/0 средняя, верхняя 
[Ac trans|Ci fib]
+12.1 +8.2 77 +12  1028.1  -0.3  753  289           
21 14.10.18 тихо ()   4000 м  дымка  ясно 
+7.7 +6.9 95 +8  1028.9  0.2  754  294           
00 15.10.18 тихо ()   4000 м  дымка  ясно 
+6.1 +5.4 95 +6  1029.5  0.4  754  296           
09 15.10.18 330 (СЗ) 10 км    ясно 
+17.8 +10.1 61 +20  1029.4  0.5  755  284           
12 15.10.18 320 (СЗ) 10 км    ясно 
+20.8 +8.7 46 +21  1028.4  -0.7  754  281           
15 15.10.18 тихо ()   10 км    4/0 верхняя 
[Ci fib]
+13.1 +7.8 70 +13  1028.7  -0.3  754  289           
21 15.10.18 тихо ()   4000 м  дымка  ясно 
+6 +5.3 95 +6  1029.4  754  296           
00 16.10.18 тихо ()   4000 м  дымка  ясно 
+4.3 +3.9 97 +4  1029.9  0.3  754  299           
09 16.10.18 250 (З) 10 км    8/0 верхняя 
[Ci fib]
+17.1 +8.6 57 +18  1028.8  -0.2  754  285           
12 16.10.18 240 (ЮЗ) 10 км    3/0 верхняя 
[Ci fib]
+20.4 +7.7 44 +20  1027.4  -1.1  753  281           
15 16.10.18 260 (З) 10 км    3/0 верхняя 
[Ci fib]
+13.7 +6.5 62 +15  1027.4  -0.6  753  288           
21 16.10.18 150 (ЮВ) 10 км    ясно 
+7.2 +5.5 89 +8  1027.4  -0.2  753  295           
00 17.10.18 150 (ЮВ) 4000 м  дымка  ясно 
+5.4 +4.4 93 +6  1027.8  -0.2  753  297           
09 17.10.18 230 (ЮЗ) 10 км    ясно 
+18.1 +8.6 54 +20  1027.1  753  283           
Время (UTC), дата Ветер
(°,м/с) 
Видим.   Явления Облачность Т
(°С)
Тd
(°С)
f(%) Тe
(°С)
Pmin
(гПа)
dP
(гПа)
Po
(мм)
O2
(г/м3)
Тmin Tmax R s Состояние
почвы

Для получения пояснительной информации подведите курсор к названию столбца.

ПОГОДА в Ореле - архив

Всё, что Вы хотите узнать о погоде в Ореле - удобно и подробно!

Выберите нужную дату (начиная с 1 января 2015* года) и нажмите кнопку "Найти".
Будут отображены архивные сводки погоды по пункту Орел, начиная с указанной даты.


Отображать данные в формате CSV (для использования в таблицах Excel)


Внимание! Наш архив погоды предназначен исключительно для личного некоммерческого использования в познавательных целях. Если Вам необходимы официальные справки о состоянии погоды (для производственных, юридических, коммерческих и т.п. целей), обращайтесь в органы Росгидромета.

*Примечание: данная дата относится к архиву по метеостанциям СССР (Россия, СНГ, Балтия).
Архив по метеостанциям Зарубежной Европы и Азии (кроме Китая) хранится 10 дней, по другим регионам земного шара (Китай, Африка, Америка, Австралия, Океания) - 1 день.

Орел - район местоположения метеостанции


Название, широта, долгота, высота метеостанции:
Орел 52.9°ш. 36°д. 196 м над ур. моря [Российская Федерация]

Дополнительная информация

В oтличие oт бoльшинства пoгoдных сайтoв мы публикуем пoдрoбную метеoинфoрмацию в детальнoм прoфессиoнальнoм фoрмате.

Характеристики температуры и влажнoсти вoздуха измеряются на высoте 2 м в тени вдали oт зданий и деревьев.
Скoрoсть ветра измеряется на высoте 10 м (на урoвне рoста челoвека скoрoсть ветра ниже в 1.5-2 раза). Если метеoстанция нахoдится в гoрoде или в лесу, тo скoрoсть ветра занижена на 2-4 м/с пo сравнению с oткрытым местoм. Скoрoсть ветра над акватoриями крупных рек и oзёр, а также на вершинах хoлмoв на 2-5 м/с выше, чем в oбычных услoвиях.
Атмoсфернoе давление в разных тoчках местнoсти мoжет значительнo oтличаться oт давления на метеoстанции, в зависимoсти oт услoвий рельефа (при пoдъёме на 10 м давление пoнижается примернo на 1 мм рт.ст.).